Weather observations for the past three days for
Mineral Wells, Mineral Wells Airport
| Date | Time (cdt) | Wind (mph) | Vis. (mi.) | Weather | Sky Cond. | Temperature (ºF) | Relative Humidity | Wind Chill (°F) | Heat Index (°F) | Pressure | Precipitation (in) | ||||||
|---|---|---|---|---|---|---|---|---|---|---|---|---|---|---|---|---|---|
| Air | Dwpt | 6 hour | altimeter (in) | sea level (mb) | 1 hr | 3 hr | 6 hr | ||||||||||
| Max. | Min. | ||||||||||||||||
| 04 | 21:53 | SE 12 | 10.00 | Fair | CLR | 73.9 | 64 | 71% | 29.67 | 1003.5 | |||||||
| 04 | 20:53 | SE 9 | 10.00 | Fair | CLR | 75 | 63 | 66% | 77 | 29.67 | 1003.4 | ||||||
| 04 | 19:53 | S 9 | 10.00 | Fair | CLR | 77 | 64 | 64% | 79 | 29.67 | 1003.6 | ||||||
| 04 | 18:53 | S 14 | 10.00 | Fair | CLR | 80.1 | 63 | 84 | 78.1 | 56% | 81 | 29.68 | 1004.1 | ||||
| 04 | 17:53 | S 16 G 25 | 10.00 | Fair | CLR | 81 | 64 | 57% | 83 | 29.69 | 1004.4 | ||||||
| 04 | 15:53 | S 16 G 25 | 10.00 | Fair | CLR | 84 | 63 | 49% | 85 | 29.73 | 1005.6 | ||||||
| 04 | 14:53 | S 13 G 24 | 10.00 | Fair | CLR | 82.9 | 61 | 48% | 83 | 29.77 | 1007.0 | ||||||
| 04 | 13:53 | S 14 G 24 | 10.00 | Fair | CLR | 81 | 61 | 51% | 82 | 29.79 | 1007.8 | ||||||
| 04 | 12:53 | S 17 | 10.00 | Fair | CLR | 79 | 60.1 | 79 | 55 | 52% | 80 | 29.82 | 1008.7 | ||||
| 04 | 11:53 | S 17 G 31 | 10.00 | Fair | CLR | 75.9 | 59 | 56% | 78 | 29.84 | 1009.5 | ||||||
| 04 | 10:53 | S 18 | 10.00 | Fair | CLR | 72 | 57.9 | 61% | 29.87 | 1010.4 | |||||||
| 04 | 09:53 | S 18 G 26 | 10.00 | Fair | CLR | 69.1 | 57 | 66% | 29.89 | 1011.0 | |||||||
| 04 | 08:53 | S 13 G 20 | 10.00 | Fair | CLR | 64 | 55 | 73% | 29.89 | 1011.1 | |||||||
| 04 | 07:53 | SE 8 | 10.00 | Fair | CLR | 59 | 53.1 | 81% | 29.89 | 1011.2 | |||||||
| 04 | 06:53 | SE 12 | 10.00 | Fair | CLR | 55 | 51.1 | 60.1 | 54 | 87% | 29.87 | 1010.6 | |||||
| 04 | 05:53 | SE 9 | 10.00 | Fair | CLR | 55 | 48.9 | 80% | 29.88 | 1010.8 | |||||||
| 04 | 04:53 | SE 9 | 10.00 | Fair | CLR | 54 | 48.9 | 83% | 29.9 | 1011.4 | |||||||
| 04 | 03:53 | SE 8 | 10.00 | Fair | CLR | 54 | 48.9 | 83% | 29.9 | 1011.4 | |||||||
| 04 | 02:53 | SE 7 | 10.00 | Fair | CLR | 54 | 48.9 | 83% | 29.92 | 1012.1 | |||||||
| 04 | 01:53 | SE 6 | 10.00 | Fair | CLR | 55 | 48.9 | 80% | 29.94 | 1012.8 | |||||||
| 04 | 00:53 | SE 9 | 10.00 | Fair | CLR | 60.1 | 48.9 | 75.9 | 60.1 | 67% | 29.95 | 1013.1 | |||||
| 03 | 23:53 | SE 10 | 10.00 | Fair | CLR | 62.1 | 48 | 60% | 29.97 | 1013.8 | |||||||
| 03 | 22:53 | S 10 | 10.00 | Fair | CLR | 64.9 | 48 | 54% | 29.98 | 1014.3 | |||||||
| 03 | 21:53 | S 8 | 10.00 | Fair | CLR | 64 | 48 | 56% | 29.98 | 1014.1 | |||||||
| 03 | 20:53 | S 8 | 10.00 | Fair | CLR | 66.9 | 46 | 47% | 29.96 | 1013.8 | |||||||
| 03 | 19:53 | S 6 | 10.00 | Fair | CLR | 71.1 | 46 | 41% | 29.96 | 1013.6 | |||||||
| 03 | 18:53 | S 12 | 10.00 | Fair | CLR | 75.9 | 45 | 81 | 75.9 | 33% | 77 | 29.97 | 1014.0 | ||||
| 03 | 17:53 | S 15 | 10.00 | Fair | CLR | 79 | 45 | 30% | 79 | 29.98 | 1014.4 | ||||||
| 03 | 16:53 | S 10 | 10.00 | Fair | CLR | 80.1 | 45 | 29% | 79 | 30 | 1014.8 | ||||||
| 03 | 15:53 | SW 16 G 25 | 10.00 | Fair | CLR | 81 | 45 | 28% | 80 | 30.03 | 1016.0 | ||||||
| 03 | 14:53 | S 12 G 21 | 10.00 | Fair | CLR | 80.1 | 44.1 | 28% | 79 | 30.06 | 1017.1 | ||||||
| 03 | 13:53 | SW 17 G 25 | 10.00 | Fair | CLR | 80.1 | 44.1 | 28% | 79 | 30.09 | 1017.8 | ||||||
| 03 | 12:53 | SW 13 G 18 | 10.00 | Fair | CLR | 79 | 48.9 | 79 | 48.9 | 35% | 79 | 30.11 | 1018.8 | ||||
| 03 | 11:53 | W 10 | 10.00 | Fair | CLR | 77 | 50 | 39% | 78 | 30.14 | 1019.8 | ||||||
| 03 | 10:53 | SW 10 | 10.00 | Fair | CLR | 73 | 51.1 | 46% | 30.16 | 1020.4 | |||||||
| 03 | 09:53 | SW 10 | 10.00 | Fair | CLR | 69.1 | 50 | 51% | 30.16 | 1020.5 | |||||||
| 03 | 08:53 | SE 3 | 10.00 | Fair | CLR | 59 | 51.1 | 75% | 30.16 | 1020.4 | |||||||
| 03 | 07:53 | Calm | 10.00 | Fair | CLR | 54 | 48.9 | 83% | 30.15 | 1020.1 | |||||||
| 03 | 06:53 | SE 5 | 10.00 | Fair | CLR | 48.9 | 46 | 54 | 48 | 90% | 48 | 30.13 | 1019.4 | ||||
| 03 | 05:53 | SE 5 | 10.00 | Fair | CLR | 50 | 46.9 | 89% | 49 | 30.12 | 1019.0 | ||||||
| 03 | 04:53 | SE 5 | 10.00 | Fair | CLR | 50 | 46 | 86% | 49 | 30.11 | 1018.9 | ||||||
| 03 | 03:53 | SE 6 | 10.00 | Fair | CLR | 51.1 | 46.9 | 86% | 30.11 | 1018.7 | |||||||
| 03 | 02:53 | SE 7 | 10.00 | Fair | CLR | 52 | 46.9 | 83% | 30.11 | 1018.7 | |||||||
| 03 | 01:53 | SE 3 | 10.00 | Fair | CLR | 54 | 48 | 80% | 30.12 | 1019.3 | |||||||
| 03 | 00:53 | E 3 | 10.00 | Fair | CLR | 55 | 48 | 73.9 | 54 | 77% | 30.12 | 1019.2 | |||||
| 02 | 23:53 | SE 5 | 10.00 | Fair | CLR | 55.9 | 50 | 81% | 30.11 | 1018.8 | |||||||
| 02 | 22:53 | S 7 | 10.00 | Fair | CLR | 63 | 44.1 | 50% | 30.11 | 1018.6 | |||||||
| 02 | 21:53 | S 8 | 10.00 | Fair | CLR | 63 | 45 | 52% | 30.1 | 1018.5 | |||||||
| 02 | 20:53 | S 7 | 10.00 | Fair | CLR | 64.9 | 46 | 51% | 30.09 | 1018.2 | |||||||
| 02 | 19:53 | S 7 | 10.00 | Fair | CLR | 70 | 48 | 46% | 30.08 | 1017.9 | |||||||
| 02 | 18:53 | Calm | 10.00 | A Few Clouds | FEW085 | 73.9 | 42.1 | 75.9 | 71.1 | 32% | 30.08 | 1017.9 | |||||
| 02 | 17:53 | Vrbl 3 | 10.00 | A Few Clouds | FEW080 | 75 | 42.1 | 31% | 77 | 30.08 | 1018.0 | ||||||
| 02 | 16:53 | Calm | 10.00 | Fair | CLR | 75 | 44.1 | 33% | 77 | 30.09 | 1018.3 | ||||||
| 02 | 15:53 | Vrbl 3 | 10.00 | Mostly Cloudy | BKN080 | 73.9 | 43 | 33% | 30.12 | 1019.2 | |||||||
| 02 | 14:53 | Calm | 10.00 | Fair | CLR | 73 | 45 | 37% | 30.14 | 1019.8 | |||||||
| 02 | 13:53 | Vrbl 3 | 10.00 | A Few Clouds | FEW060 | 73 | 46.9 | 40% | 30.15 | 1020.2 | |||||||
| 02 | 12:53 | Calm | 10.00 | Fair | CLR | 71.1 | 44.1 | 72 | 48 | 38% | 30.18 | 1021.1 | |||||
| 02 | 11:53 | Calm | 10.00 | Fair | CLR | 69.1 | 44.1 | 41% | 30.19 | 1021.7 | |||||||
| 02 | 10:53 | W 7 | 10.00 | Fair | CLR | 66.9 | 48.9 | 53% | 30.19 | 1021.6 | |||||||
| 02 | 09:53 | W 5 | 10.00 | Fair | CLR | 61 | 53.1 | 75% | 30.19 | 1021.8 | |||||||
| 02 | 08:53 | W 5 | 10.00 | Fair | CLR | 54 | 51.1 | 90% | 30.18 | 1021.5 | |||||||
| 02 | 07:53 | Calm | 10.00 | Fair | CLR | 51.1 | 48.9 | 92% | 30.16 | 1020.8 | |||||||
| 02 | 06:53 | W 6 | 9.00 | Fair | CLR | 48 | 46.9 | 52 | 45 | 96% | 46 | 30.14 | 1020.2 | ||||
| 02 | 05:53 | Calm | 0.25 | Fog | VV001 | 46 | 46 | 100% | 30.11 | 1019.4 | |||||||
| 02 | 04:53 | Calm | 3.00 | Fog/Mist | CLR | 48.9 | 48.9 | 100% | 30.1 | 1018.9 | |||||||
| 02 | 03:53 | Calm | 4.00 | Fog/Mist | CLR | 51.1 | 50 | 96% | 30.1 | 1018.8 | |||||||
| 02 | 02:53 | W 5 | 7.00 | Fair | CLR | 48.9 | 48.9 | 100% | 48 | 30.1 | 1019.0 | ||||||
| 02 | 01:53 | W 3 | 10.00 | Fair | CLR | 51.1 | 48.9 | 92% | 30.11 | 1019.0 | |||||||
| 02 | 00:53 | S 7 | 10.00 | Fair | CLR | 54 | 48.9 | 62.1 | 53.1 | 83% | 30.1 | 1018.5 | |||||
| 01 | 23:53 | S 6 | 8.00 | Mostly Cloudy | BKN060 | 55 | 52 | 90% | 30.1 | 1018.8 | |||||||
| 01 | 22:53 | Calm | 10.00 | Overcast | OVC060 | 55.9 | 53.1 | 90% | 30.09 | 1018.5 | |||||||
| Date | Time (cdt) | Wind (mph) | Vis. (mi.) | Weather | Sky Cond. | Air | Dwpt | Max. | Min. | Relative Humidity | Wind Chill (°F) | Heat Index (°F) | altimeter (in) | sea level (mb) | 1 hr | 3 hr | 6 hr |
| 6 hour | |||||||||||||||||
| Temperature (ºF) | Pressure | Precipitation (in) | |||||||||||||||